This is the latest recevied weather packets stored in our database for station/object BAGASKAR. If no packets are shown the sender has not sent any weather packets the latest 10 day(s).
| Time | Temp. | Humidity | Pressure | Rain* | Wind** | Luminosity | Snow |
|---|---|---|---|---|---|---|---|
| 1778264852 | 8.33° C | 60% | 1027 hPa | - | - | - | - |
| 1778263652 | 8.33° C | 63% | 1026.9 hPa | - | - | - | - |
| 1778262452 | 7.78° C | 94% | 1027 hPa | - | - | - | - |
| 1778261252 | 8.33° C | 86% | 1027 hPa | - | - | - | - |
| 1778260052 | 8.89° C | 73% | 1026.9 hPa | - | - | - | - |
| 1778258851 | 10° C | 69% | 1026.7 hPa | - | - | - | - |
| 1778257652 | 10° C | 67% | 1026.6 hPa | - | - | - | - |
| 1778256452 | 10.56° C | 61% | 1026.4 hPa | - | - | - | - |
| 1778255251 | 10.56° C | 57% | 1026.5 hPa | - | - | - | - |
| 1778254051 | 11.11° C | 59% | 1026.4 hPa | - | - | - | - |
| 1778252851 | 10.56° C | 63% | 1026.4 hPa | - | - | - | - |
| 1778251651 | 10.56° C | 63% | 1026.4 hPa | - | - | - | - |
| 1778250451 | 11.11° C | 60% | 1026.4 hPa | - | - | - | - |
| 1778249251 | 11.11° C | 59% | 1026.3 hPa | - | - | - | - |
| 1778248052 | 11.11° C | 56% | 1026.5 hPa | - | - | - | - |
| 1778246851 | 11.67° C | 57% | 1026.5 hPa | - | - | - | - |
| 1778244451 | 10.56° C | 57% | 1026.7 hPa | - | - | - | - |
| 1778243251 | 10° C | 57% | 1026.8 hPa | - | - | - | - |
| 1778242051 | 8.89° C | 64% | 1026.8 hPa | - | - | - | - |
| 1778240851 | 9.44° C | 65% | 1026.8 hPa | - | - | - | - |
| 1778239651 | 8.89° C | 67% | 1027 hPa | - | - | - | - |
| 1778238451 | 8.33° C | 66% | 1026.8 hPa | - | - | - | - |
| 1778236050 | 8.33° C | 62% | 1026.8 hPa | - | - | - | - |
| 1778234850 | 8.89° C | 66% | 1026.7 hPa | - | - | - | - |
| 1778233650 | 9.44° C | 56% | 1026.5 hPa | - | - | - | - |
* Rain since midnight (hover to see other rain measurements)
** Current wind speed in m/s (hover to see current wind gust speed)